Time,TemperatureF,DewpointF,PressureIn,WindDirection,WindDirectionDegrees,WindSpeedMPH,WindSpeedGustMPH,Humidity,HourlyPrecipIn,Conditions,Clouds,dailyrainin,SolarRadiationWatts/m^2,SoftwareType,DateUTC
2013-11-10 00:05:00,53.3,50.7,30.08,West,278,0.0,0.0,91,0.00,,,0.00,0,Wunderground v.1.15,2013-11-10 08:05:00,
2013-11-10 00:10:00,53.2,50.6,30.07,West,279,0.0,0.0,91,0.00,,,0.00,0,Wunderground v.1.15,2013-11-10 08:10:00,
2013-11-10 00:20:00,53.2,50.6,30.08,West,278,0.0,0.0,91,0.00,,,0.00,0,Wunderground v.1.15,2013-11-10 08:20:00,
2013-11-10 00:30:00,53.2,50.6,30.07,West,279,0.0,0.0,91,0.00,,,0.00,0,Wunderground v.1.15,2013-11-10 08:30:00,
2013-11-10 00:35:00,53.1,50.8,30.08,West,278,0.0,0.0,92,0.00,,,0.00,0,Wunderground v.1.15,2013-11-10 08:35:00,
2013-11-10 00:40:00,53.1,50.8,30.07,West,278,0.0,0.0,92,0.00,,,0.00,0,Wunderground v.1.15,2013-11-10 08:40:00,
2013-11-10 00:50:00,52.7,50.1,30.07,West,278,0.0,0.0,91,0.00,,,0.00,0,Wunderground v.1.15,2013-11-10 08:50:00,
2013-11-10 01:00:00,52.4,49.8,30.07,West,280,0.0,0.0,91,0.00,,,0.00,0,Wunderground v.1.15,2013-11-10 09:00:00,
2013-11-10 01:05:00,52.5,50.2,30.07,West,278,0.0,0.0,92,0.00,,,0.00,0,Wunderground v.1.15,2013-11-10 09:05:00,
2013-11-10 01:15:00,52.5,50.2,30.07,West,279,0.0,0.0,92,0.00,,,0.00,0,Wunderground v.1.15,2013-11-10 09:15:00,
2013-11-10 01:25:00,51.8,49.3,30.07,West,280,0.0,0.0,91,0.00,,,0.00,0,Wunderground v.1.15,2013-11-10 09:25:00,
2013-11-10 01:30:00,51.7,49.5,30.07,West,278,0.0,0.0,92,0.00,,,0.00,0,Wunderground v.1.15,2013-11-10 09:30:00,
2013-11-10 01:40:00,51.6,49.4,30.07,West,280,0.0,0.0,92,0.00,,,0.00,0,Wunderground v.1.15,2013-11-10 09:40:00,
2013-11-10 01:50:00,51.7,49.5,30.08,West,279,0.0,0.0,92,0.00,,,0.00,0,Wunderground v.1.15,2013-11-10 09:50:00,
2013-11-10 01:55:00,51.8,49.8,30.08,West,278,0.0,0.0,93,0.00,,,0.00,0,Wunderground v.1.15,2013-11-10 09:55:00,
2013-11-10 02:10:00,52.0,50.0,30.08,West,279,0.0,0.0,93,0.00,,,0.00,0,Wunderground v.1.15,2013-11-10 10:10:00,
2013-11-10 02:15:00,52.0,49.7,30.08,West,279,0.0,0.0,92,0.00,,,0.00,0,Wunderground v.1.15,2013-11-10 10:15:00,
2013-11-10 02:20:00,51.9,49.9,30.08,West,279,0.0,0.0,93,0.00,,,0.00,0,Wunderground v.1.15,2013-11-10 10:20:00,
2013-11-10 02:25:00,52.1,50.1,30.08,West,280,0.0,0.0,93,0.00,,,0.00,0,Wunderground v.1.15,2013-11-10 10:25:00,
2013-11-10 02:35:00,52.0,49.7,30.08,West,279,0.0,0.0,92,0.00,,,0.00,0,Wunderground v.1.15,2013-11-10 10:35:00,
2013-11-10 02:45:00,51.9,49.6,30.08,West,279,0.0,0.0,92,0.00,,,0.00,0,Wunderground v.1.15,2013-11-10 10:45:00,
2013-11-10 02:50:00,51.8,49.5,30.08,West,279,0.0,0.0,92,0.00,,,0.00,0,Wunderground v.1.15,2013-11-10 10:50:00,
2013-11-10 03:00:00,52.1,49.8,30.08,West,279,0.0,0.0,92,0.00,,,0.00,0,Wunderground v.1.15,2013-11-10 11:00:00,
2013-11-10 03:05:00,52.4,50.4,30.08,West,279,0.0,0.0,93,0.00,,,0.00,0,Wunderground v.1.15,2013-11-10 11:05:00,
2013-11-10 03:10:00,52.4,50.4,30.09,West,280,0.0,0.0,93,0.00,,,0.00,0,Wunderground v.1.15,2013-11-10 11:10:00,
2013-11-10 03:15:00,52.3,50.0,30.09,West,279,0.0,0.0,92,0.00,,,0.00,0,Wunderground v.1.15,2013-11-10 11:15:00,
2013-11-10 03:20:00,52.6,50.6,30.09,West,278,0.0,0.0,93,0.00,,,0.00,0,Wunderground v.1.15,2013-11-10 11:20:00,
2013-11-10 03:30:00,52.8,50.8,30.09,West,278,0.0,0.0,93,0.00,,,0.00,0,Wunderground v.1.15,2013-11-10 11:30:00,
2013-11-10 03:40:00,53.1,51.1,30.09,West,279,0.0,0.0,93,0.00,,,0.00,0,Wunderground v.1.15,2013-11-10 11:40:00,
2013-11-10 03:50:00,53.7,51.7,30.09,SW,236,3.0,4.0,93,0.00,,,0.00,0,Wunderground v.1.15,2013-11-10 11:50:00,
2013-11-10 03:55:00,53.8,51.8,30.09,SW,236,2.0,4.0,93,0.00,,,0.00,0,Wunderground v.1.15,2013-11-10 11:55:00,
2013-11-10 04:05:00,53.7,51.7,30.09,SW,235,1.0,2.0,93,0.00,,,0.00,0,Wunderground v.1.15,2013-11-10 12:05:00,
2013-11-10 04:15:00,53.6,51.6,30.09,SW,236,2.0,2.0,93,0.00,,,0.00,0,Wunderground v.1.15,2013-11-10 12:15:00,
2013-11-10 04:25:00,53.6,51.6,30.10,SW,236,0.0,2.0,93,0.00,,,0.00,0,Wunderground v.1.15,2013-11-10 12:25:00,
2013-11-10 04:30:00,53.6,51.6,30.10,SW,235,0.0,0.0,93,0.00,,,0.00,0,Wunderground v.1.15,2013-11-10 12:30:00,
2013-11-10 04:40:00,53.5,51.2,30.10,SW,236,0.0,0.0,92,0.00,,,0.00,0,Wunderground v.1.15,2013-11-10 12:40:00,
2013-11-10 04:50:00,53.4,51.4,30.10,SW,236,0.0,0.0,93,0.00,,,0.00,0,Wunderground v.1.15,2013-11-10 12:50:00,
2013-11-10 04:55:00,53.4,51.1,30.10,SW,236,0.0,0.0,92,0.00,,,0.00,0,Wunderground v.1.15,2013-11-10 12:55:00,
2013-11-10 05:05:00,53.0,50.7,30.10,SW,235,0.0,0.0,92,0.00,,,0.00,0,Wunderground v.1.15,2013-11-10 13:05:00,
2013-11-10 05:10:00,52.9,50.6,30.10,SW,235,0.0,0.0,92,0.00,,,0.00,0,Wunderground v.1.15,2013-11-10 13:10:00,
2013-11-10 05:15:00,52.8,50.5,30.10,SW,236,0.0,0.0,92,0.00,,,0.00,0,Wunderground v.1.15,2013-11-10 13:15:00,
2013-11-10 05:20:00,52.6,50.3,30.10,SW,235,0.0,0.0,92,0.00,,,0.00,0,Wunderground v.1.15,2013-11-10 13:20:00,
2013-11-10 05:30:00,52.6,50.6,30.10,SW,235,0.0,0.0,93,0.00,,,0.00,0,Wunderground v.1.15,2013-11-10 13:30:00,
2013-11-10 05:41:00,52.2,49.9,30.11,WSW,237,0.0,0.0,92,0.00,,,0.00,0,Wunderground v.1.15,2013-11-10 13:41:00,
2013-11-10 05:50:00,51.7,49.5,30.11,SW,235,0.0,0.0,92,0.00,,,0.00,0,Wunderground v.1.15,2013-11-10 13:50:00,
2013-11-10 06:00:00,51.3,49.1,30.11,WSW,237,0.0,0.0,92,0.00,,,0.00,0,Wunderground v.1.15,2013-11-10 14:00:00,
2013-11-10 06:10:00,51.4,49.4,30.12,SW,235,0.0,0.0,93,0.00,,,0.00,0,Wunderground v.1.15,2013-11-10 14:10:00,
2013-11-10 06:20:00,52.1,50.4,30.12,SW,236,0.0,0.0,94,0.00,,,0.00,0,Wunderground v.1.15,2013-11-10 14:20:00,
2013-11-10 06:30:00,52.6,50.6,30.12,SW,236,0.0,0.0,93,0.00,,,0.00,0,Wunderground v.1.15,2013-11-10 14:30:00,
2013-11-10 06:35:00,52.5,50.5,30.12,SW,235,0.0,0.0,93,0.00,,,0.00,0,Wunderground v.1.15,2013-11-10 14:35:00,
2013-11-10 06:45:00,52.2,50.2,30.13,SW,235,0.0,0.0,93,0.00,,,0.00,0,Wunderground v.1.15,2013-11-10 14:45:00,
2013-11-10 06:55:00,52.3,50.3,30.13,SW,234,0.0,0.0,93,0.00,,,0.00,7,Wunderground v.1.15,2013-11-10 14:55:00,
2013-11-10 07:05:00,52.3,50.3,30.13,SW,232,0.0,0.0,93,0.00,,,0.00,16,Wunderground v.1.15,2013-11-10 15:05:00,
2013-11-10 07:15:00,52.2,50.2,30.13,SW,235,0.0,0.0,93,0.00,,,0.00,28,Wunderground v.1.15,2013-11-10 15:15:00,
2013-11-10 07:20:00,52.3,50.3,30.14,WSW,238,0.0,0.0,93,0.00,,,0.00,46,Wunderground v.1.15,2013-11-10 15:20:00,
2013-11-10 07:25:00,52.5,50.5,30.14,WSW,239,0.0,0.0,93,0.00,,,0.00,58,Wunderground v.1.15,2013-11-10 15:25:00,
2013-11-10 07:35:00,52.5,50.5,30.15,SW,234,2.0,3.0,93,0.00,,,0.00,49,Wunderground v.1.15,2013-11-10 15:35:00,
2013-11-10 07:45:00,52.3,50.3,30.15,North,353,3.0,4.0,93,0.00,,,0.00,49,Wunderground v.1.15,2013-11-10 15:45:00,
2013-11-10 07:55:00,52.2,50.2,30.15,North,356,3.0,3.0,93,0.00,,,0.00,51,Wunderground v.1.15,2013-11-10 15:55:00,
2013-11-10 08:00:00,52.2,50.2,30.15,North,359,3.0,5.0,93,0.00,,,0.00,54,Wunderground v.1.15,2013-11-10 16:00:00,
2013-11-10 08:10:00,52.2,50.2,30.16,North,3,2.0,2.0,93,0.00,,,0.00,65,Wunderground v.1.15,2013-11-10 16:10:00,
2013-11-10 08:15:00,52.3,50.3,30.16,North,2,2.0,2.0,93,0.00,,,0.00,72,Wunderground v.1.15,2013-11-10 16:15:00,
2013-11-10 08:25:00,52.4,50.4,30.16,NNE,14,4.0,6.0,93,0.00,,,0.00,77,Wunderground v.1.15,2013-11-10 16:25:00,
2013-11-10 08:30:00,52.5,50.5,30.16,NNE,12,5.0,5.0,93,0.00,,,0.00,95,Wunderground v.1.15,2013-11-10 16:30:00,
2013-11-10 08:35:00,52.6,50.6,30.16,NNE,12,4.0,5.0,93,0.00,,,0.00,127,Wunderground v.1.15,2013-11-10 16:35:00,
2013-11-10 08:45:00,53.2,51.2,30.16,NNE,13,3.0,4.0,93,0.00,,,0.00,188,Wunderground v.1.15,2013-11-10 16:45:00,
2013-11-10 08:50:00,53.7,51.7,30.16,NNE,12,3.0,4.0,93,0.00,,,0.00,213,Wunderground v.1.15,2013-11-10 16:50:00,
2013-11-10 08:55:00,54.1,52.1,30.15,North,10,4.0,4.0,93,0.00,,,0.00,155,Wunderground v.1.15,2013-11-10 16:55:00,
2013-11-10 09:06:00,55.2,52.9,30.15,NNE,12,3.0,3.0,92,0.00,,,0.00,323,Wunderground v.1.15,2013-11-10 17:06:00,
2013-11-10 09:15:00,57.3,54.4,30.16,NNE,14,4.0,4.0,90,0.00,,,0.00,348,Wunderground v.1.15,2013-11-10 17:15:00,
2013-11-10 09:25:00,59.3,55.7,30.16,NNE,12,2.0,4.0,88,0.00,,,0.00,378,Wunderground v.1.15,2013-11-10 17:25:00,
2013-11-10 09:35:00,61.1,55.9,30.15,North,10,2.0,2.0,83,0.00,,,0.00,392,Wunderground v.1.15,2013-11-10 17:35:00,
2013-11-10 09:40:00,61.9,56.0,30.16,NNE,15,2.0,2.0,81,0.00,,,0.00,401,Wunderground v.1.15,2013-11-10 17:40:00,
2013-11-10 09:50:00,63.8,56.4,30.16,NNE,12,0.0,2.0,77,0.00,,,0.00,424,Wunderground v.1.15,2013-11-10 17:50:00,
2013-11-10 09:55:00,64.7,56.2,30.16,NNE,14,0.0,0.0,74,0.00,,,0.00,432,Wunderground v.1.15,2013-11-10 17:55:00,
2013-11-10 10:00:00,65.2,55.9,30.16,North,11,1.0,1.0,72,0.00,,,0.00,441,Wunderground v.1.15,2013-11-10 18:00:00,
2013-11-10 10:05:00,63.3,53.3,30.16,NNE,16,1.0,1.0,70,0.00,,,0.00,468,Wunderground v.1.15,2013-11-10 18:05:00,
2013-11-10 10:15:00,59.8,52.2,30.16,North,9,1.0,3.0,76,0.00,,,0.00,483,Wunderground v.1.15,2013-11-10 18:15:00,
2013-11-10 10:25:00,58.5,52.0,30.16,NNE,13,3.0,4.0,79,0.00,,,0.00,517,Wunderground v.1.15,2013-11-10 18:25:00,
2013-11-10 10:35:00,58.4,52.3,30.16,NNW,330,3.0,3.0,80,0.00,,,0.00,499,Wunderground v.1.15,2013-11-10 18:35:00,
2013-11-10 10:40:00,58.6,52.4,30.16,NW,307,2.0,5.0,80,0.00,,,0.00,504,Wunderground v.1.15,2013-11-10 18:40:00,
2013-11-10 10:45:00,58.0,51.9,30.16,WNW,285,3.0,5.0,80,0.00,,,0.00,508,Wunderground v.1.15,2013-11-10 18:45:00,
2013-11-10 10:50:00,58.0,52.2,30.16,West,262,3.0,3.0,81,0.00,,,0.00,513,Wunderground v.1.15,2013-11-10 18:50:00,
2013-11-10 11:00:00,58.1,52.6,30.16,West,264,3.0,5.0,82,0.00,,,0.00,520,Wunderground v.1.15,2013-11-10 19:00:00,
2013-11-10 11:05:00,57.2,51.8,30.16,WSW,251,3.0,5.0,82,0.00,,,0.00,520,Wunderground v.1.15,2013-11-10 19:05:00,
2013-11-10 11:15:00,56.2,51.4,30.16,WSW,258,4.0,4.0,84,0.00,,,0.00,531,Wunderground v.1.15,2013-11-10 19:15:00,
2013-11-10 11:25:00,56.2,51.7,30.16,WSW,241,4.0,6.0,85,0.00,,,0.00,538,Wunderground v.1.15,2013-11-10 19:25:00,
2013-11-10 11:30:00,56.0,51.6,30.15,SW,235,4.0,5.0,85,0.00,,,0.00,538,Wunderground v.1.15,2013-11-10 19:30:00,
2013-11-10 11:35:00,55.8,51.4,30.15,WSW,239,4.0,5.0,85,0.00,,,0.00,547,Wunderground v.1.15,2013-11-10 19:35:00,
2013-11-10 11:45:00,56.1,52.0,30.15,SW,235,4.0,5.0,86,0.00,,,0.00,545,Wunderground v.1.15,2013-11-10 19:45:00,
2013-11-10 11:55:00,56.2,52.1,30.14,SW,232,4.0,5.0,86,0.00,,,0.00,545,Wunderground v.1.15,2013-11-10 19:55:00,
2013-11-10 12:00:00,56.2,52.1,30.14,SW,229,4.0,4.0,86,0.00,,,0.00,548,Wunderground v.1.15,2013-11-10 20:00:00,
2013-11-10 12:06:00,56.3,52.2,30.14,SW,235,4.0,6.0,86,0.00,,,0.00,548,Wunderground v.1.15,2013-11-10 20:06:00,
2013-11-10 12:11:00,56.3,52.5,30.14,SW,226,4.0,5.0,87,0.00,,,0.00,552,Wunderground v.1.15,2013-11-10 20:11:00,
2013-11-10 12:20:00,56.8,52.7,30.13,SW,234,4.0,5.0,86,0.00,,,0.00,554,Wunderground v.1.15,2013-11-10 20:20:00,
2013-11-10 12:26:00,57.1,53.0,30.12,SW,228,5.0,5.0,86,0.00,,,0.00,554,Wunderground v.1.15,2013-11-10 20:26:00,
2013-11-10 12:35:00,57.2,52.7,30.12,SW,229,4.0,5.0,85,0.00,,,0.00,550,Wunderground v.1.15,2013-11-10 20:35:00,
2013-11-10 12:40:00,57.2,52.7,30.11,SW,223,4.0,4.0,85,0.00,,,0.00,548,Wunderground v.1.15,2013-11-10 20:40:00,
2013-11-10 12:45:00,57.2,52.7,30.11,SW,230,4.0,4.0,85,0.00,,,0.00,545,Wunderground v.1.15,2013-11-10 20:45:00,
2013-11-10 12:55:00,57.7,52.9,30.10,SW,232,4.0,4.0,84,0.00,,,0.00,540,Wunderground v.1.15,2013-11-10 20:55:00,
2013-11-10 13:00:00,58.5,53.7,30.10,SW,230,3.0,3.0,84,0.00,,,0.00,534,Wunderground v.1.15,2013-11-10 21:00:00,
2013-11-10 13:05:00,59.4,53.2,30.10,SW,235,3.0,6.0,80,0.00,,,0.00,527,Wunderground v.1.15,2013-11-10 21:05:00,
2013-11-10 13:15:00,60.4,53.2,30.10,WSW,250,4.0,4.0,77,0.00,,,0.00,519,Wunderground v.1.15,2013-11-10 21:15:00,
2013-11-10 13:20:00,60.3,52.7,30.10,WSW,247,4.0,4.0,76,0.00,,,0.00,513,Wunderground v.1.15,2013-11-10 21:20:00,
2013-11-10 13:26:00,60.3,52.3,30.10,WSW,255,5.0,5.0,75,0.00,,,0.00,504,Wunderground v.1.15,2013-11-10 21:26:00,
2013-11-10 13:35:00,60.3,52.3,30.10,West,259,6.0,8.0,75,0.00,,,0.00,492,Wunderground v.1.15,2013-11-10 21:35:00,
2013-11-10 13:45:00,60.5,52.5,30.10,WSW,252,5.0,7.0,75,0.00,,,0.00,476,Wunderground v.1.15,2013-11-10 21:45:00,
2013-11-10 13:55:00,60.4,52.8,30.10,WSW,255,6.0,8.0,76,0.00,,,0.00,457,Wunderground v.1.15,2013-11-10 21:55:00,
2013-11-10 14:05:00,59.9,52.3,30.10,WSW,251,8.0,10.0,76,0.00,,,0.00,439,Wunderground v.1.15,2013-11-10 22:05:00,
2013-11-10 14:15:00,59.9,52.7,30.10,WSW,247,8.0,11.0,77,0.00,,,0.00,420,Wunderground v.1.15,2013-11-10 22:15:00,
2013-11-10 14:20:00,59.8,52.6,30.10,WSW,243,8.0,10.0,77,0.00,,,0.00,410,Wunderground v.1.15,2013-11-10 22:20:00,
2013-11-10 14:30:00,59.9,53.0,30.10,WSW,249,8.0,8.0,78,0.00,,,0.00,388,Wunderground v.1.15,2013-11-10 22:30:00,
2013-11-10 14:40:00,59.7,52.5,30.10,WSW,249,8.0,8.0,77,0.00,,,0.00,362,Wunderground v.1.15,2013-11-10 22:40:00,
2013-11-10 14:50:00,59.8,52.6,30.10,WSW,256,7.0,7.0,77,0.00,,,0.00,341,Wunderground v.1.15,2013-11-10 22:50:00,
2013-11-10 14:55:00,59.9,52.7,30.11,West,268,8.0,11.0,77,0.00,,,0.00,327,Wunderground v.1.15,2013-11-10 22:55:00,
2013-11-10 15:05:00,59.7,52.5,30.10,West,268,7.0,10.0,77,0.00,,,0.00,302,Wunderground v.1.15,2013-11-10 23:05:00,
2013-11-10 15:10:00,59.5,51.9,30.11,West,263,8.0,8.0,76,0.00,,,0.00,290,Wunderground v.1.15,2013-11-10 23:10:00,
2013-11-10 15:20:00,59.3,52.1,30.10,WSW,257,8.0,8.0,77,0.00,,,0.00,264,Wunderground v.1.15,2013-11-10 23:20:00,
2013-11-10 15:25:00,59.4,52.2,30.10,West,268,7.0,8.0,77,0.00,,,0.00,251,Wunderground v.1.15,2013-11-10 23:25:00,
2013-11-10 15:35:00,59.2,52.0,30.10,WSW,255,6.0,6.0,77,0.00,,,0.00,218,Wunderground v.1.15,2013-11-10 23:35:00,
2013-11-10 15:40:00,59.1,52.2,30.10,WSW,255,6.0,6.0,78,0.00,,,0.00,204,Wunderground v.1.15,2013-11-10 23:40:00,
2013-11-10 15:50:00,58.8,52.0,30.10,WSW,256,5.0,6.0,78,0.00,,,0.00,169,Wunderground v.1.15,2013-11-10 23:50:00,
2013-11-10 15:55:00,58.9,52.4,30.10,WSW,247,4.0,6.0,79,0.00,,,0.00,149,Wunderground v.1.15,2013-11-10 23:55:00,
2013-11-10 16:05:00,58.8,52.6,30.11,WSW,249,5.0,6.0,80,0.00,,,0.00,116,Wunderground v.1.15,2013-11-11 00:05:00,
2013-11-10 16:10:00,58.5,52.4,30.10,WSW,258,6.0,6.0,80,0.00,,,0.00,100,Wunderground v.1.15,2013-11-11 00:10:00,
2013-11-10 16:20:00,58.6,52.4,30.10,WSW,250,5.0,5.0,80,0.00,,,0.00,72,Wunderground v.1.15,2013-11-11 00:20:00,
2013-11-10 16:25:00,58.2,52.4,30.10,WSW,242,4.0,5.0,81,0.00,,,0.00,39,Wunderground v.1.15,2013-11-11 00:25:00,
2013-11-10 16:35:00,57.7,52.2,30.10,WSW,238,3.0,6.0,82,0.00,,,0.00,28,Wunderground v.1.15,2013-11-11 00:35:00,
2013-11-10 16:40:00,57.6,52.1,30.10,WSW,241,3.0,3.0,82,0.00,,,0.00,16,Wunderground v.1.15,2013-11-11 00:40:00,
2013-11-10 16:45:00,57.3,52.2,30.10,WSW,253,3.0,9.0,83,0.00,,,0.00,16,Wunderground v.1.15,2013-11-11 00:45:00,
2013-11-10 16:55:00,56.8,52.0,30.11,WSW,247,6.0,8.0,84,0.00,,,0.00,5,Wunderground v.1.15,2013-11-11 00:55:00,
2013-11-10 17:05:00,56.5,51.7,30.11,WSW,254,6.0,8.0,84,0.00,,,0.00,0,Wunderground v.1.15,2013-11-11 01:05:00,
2013-11-10 17:10:00,56.6,51.8,30.11,WSW,251,6.0,6.0,84,0.00,,,0.00,0,Wunderground v.1.15,2013-11-11 01:10:00,
2013-11-10 17:20:00,56.3,51.2,30.11,WSW,255,6.0,7.0,83,0.00,,,0.00,0,Wunderground v.1.15,2013-11-11 01:20:00,
2013-11-10 17:25:00,56.2,51.4,30.11,WSW,254,5.0,7.0,84,0.00,,,0.00,0,Wunderground v.1.15,2013-11-11 01:25:00,
2013-11-10 17:35:00,56.0,51.6,30.11,WSW,255,4.0,5.0,85,0.00,,,0.00,0,Wunderground v.1.15,2013-11-11 01:35:00,
2013-11-10 17:45:00,55.9,51.5,30.11,WSW,256,5.0,6.0,85,0.00,,,0.00,0,Wunderground v.1.15,2013-11-11 01:45:00,
2013-11-10 17:50:00,55.8,51.4,30.11,WSW,250,6.0,8.0,85,0.00,,,0.00,0,Wunderground v.1.15,2013-11-11 01:50:00,
2013-11-10 17:55:00,55.7,51.3,30.11,WSW,253,6.0,8.0,85,0.00,,,0.00,0,Wunderground v.1.15,2013-11-11 01:55:00,
2013-11-10 18:05:00,55.8,51.7,30.12,WSW,253,4.0,6.0,86,0.00,,,0.00,0,Wunderground v.1.15,2013-11-11 02:05:00,
2013-11-10 18:15:00,55.7,51.6,30.11,WSW,249,2.0,5.0,86,0.00,,,0.00,0,Wunderground v.1.15,2013-11-11 02:15:00,
2013-11-10 18:25:00,55.6,51.5,30.12,WSW,248,2.0,2.0,86,0.00,,,0.00,0,Wunderground v.1.15,2013-11-11 02:25:00,
2013-11-10 18:30:00,55.5,51.4,30.12,WSW,249,2.0,2.0,86,0.00,,,0.00,0,Wunderground v.1.15,2013-11-11 02:30:00,
2013-11-10 18:36:00,55.5,51.4,30.12,WSW,249,1.0,2.0,86,0.00,,,0.00,0,Wunderground v.1.15,2013-11-11 02:36:00,
2013-11-10 18:45:00,55.4,51.6,30.12,WSW,249,0.0,3.0,87,0.00,,,0.00,0,Wunderground v.1.15,2013-11-11 02:45:00,
2013-11-10 18:55:00,55.3,51.5,30.12,WSW,249,2.0,3.0,87,0.00,,,0.00,0,Wunderground v.1.15,2013-11-11 02:55:00,
2013-11-10 19:00:00,55.3,51.5,30.12,WSW,249,1.0,2.0,87,0.00,,,0.00,0,Wunderground v.1.15,2013-11-11 03:00:00,
2013-11-10 19:05:00,55.2,51.4,30.13,WSW,248,2.0,3.0,87,0.00,,,0.00,0,Wunderground v.1.15,2013-11-11 03:05:00,
2013-11-10 19:15:00,55.2,51.7,30.13,WSW,249,2.0,2.0,88,0.00,,,0.00,0,Wunderground v.1.15,2013-11-11 03:15:00,
2013-11-10 19:20:00,55.2,51.7,30.13,WSW,249,1.0,1.0,88,0.00,,,0.00,0,Wunderground v.1.15,2013-11-11 03:20:00,
2013-11-10 19:25:00,55.2,51.7,30.13,WSW,249,0.0,1.0,88,0.00,,,0.00,0,Wunderground v.1.15,2013-11-11 03:25:00,
2013-11-10 19:35:00,55.2,51.7,30.13,WSW,249,1.0,3.0,88,0.00,,,0.00,0,Wunderground v.1.15,2013-11-11 03:35:00,
2013-11-10 19:40:00,55.2,51.7,30.13,WSW,249,3.0,4.0,88,0.00,,,0.00,0,Wunderground v.1.15,2013-11-11 03:40:00,
2013-11-10 19:50:00,55.2,51.7,30.14,WSW,249,3.0,3.0,88,0.00,,,0.00,0,Wunderground v.1.15,2013-11-11 03:50:00,
2013-11-10 20:00:00,55.2,51.7,30.14,WSW,255,4.0,4.0,88,0.00,,,0.00,0,Wunderground v.1.15,2013-11-11 04:00:00,
2013-11-10 20:10:00,55.1,51.6,30.14,WSW,249,2.0,6.0,88,0.00,,,0.00,0,Wunderground v.1.15,2013-11-11 04:10:00,
2013-11-10 20:15:00,55.0,51.5,30.14,WSW,254,3.0,6.0,88,0.00,,,0.00,0,Wunderground v.1.15,2013-11-11 04:15:00,
2013-11-10 20:25:00,54.9,51.4,30.14,WSW,256,4.0,5.0,88,0.00,,,0.00,0,Wunderground v.1.15,2013-11-11 04:25:00,
2013-11-10 20:30:00,54.8,51.3,30.14,WSW,257,4.0,4.0,88,0.00,,,0.00,0,Wunderground v.1.15,2013-11-11 04:30:00,
2013-11-10 20:40:00,54.8,51.3,30.14,WSW,257,2.0,2.0,88,0.00,,,0.00,0,Wunderground v.1.15,2013-11-11 04:40:00,
2013-11-10 20:50:00,54.6,51.4,30.14,WSW,257,2.0,5.0,89,0.00,,,0.00,0,Wunderground v.1.15,2013-11-11 04:50:00,
2013-11-10 21:00:00,54.6,51.4,30.15,WSW,257,2.0,2.0,89,0.00,,,0.00,0,Wunderground v.1.15,2013-11-11 05:00:00,
2013-11-10 21:05:00,54.6,51.4,30.15,WSW,258,3.0,7.0,89,0.00,,,0.00,0,Wunderground v.1.15,2013-11-11 05:05:00,
2013-11-10 21:10:00,54.6,51.4,30.15,WSW,257,3.0,4.0,89,0.00,,,0.00,0,Wunderground v.1.15,2013-11-11 05:10:00,
2013-11-10 21:15:00,54.6,51.4,30.15,WSW,258,4.0,4.0,89,0.00,,,0.00,0,Wunderground v.1.15,2013-11-11 05:15:00,
2013-11-10 21:20:00,54.6,51.4,30.15,WSW,258,3.0,3.0,89,0.00,,,0.00,0,Wunderground v.1.15,2013-11-11 05:20:00,
2013-11-10 21:25:00,54.5,51.3,30.15,WSW,258,1.0,3.0,89,0.00,,,0.00,0,Wunderground v.1.15,2013-11-11 05:25:00,
2013-11-10 21:30:00,54.5,51.3,30.15,WSW,257,2.0,3.0,89,0.00,,,0.00,0,Wunderground v.1.15,2013-11-11 05:30:00,
2013-11-10 21:35:00,54.5,51.3,30.15,WSW,258,2.0,4.0,89,0.00,,,0.00,0,Wunderground v.1.15,2013-11-11 05:35:00,
2013-11-10 21:40:00,54.5,51.3,30.15,West,259,3.0,3.0,89,0.00,,,0.00,0,Wunderground v.1.15,2013-11-11 05:40:00,
2013-11-10 21:45:00,54.5,51.3,30.15,WSW,258,3.0,4.0,89,0.00,,,0.00,0,Wunderground v.1.15,2013-11-11 05:45:00,
2013-11-10 21:55:00,54.3,51.1,30.15,WSW,258,3.0,4.0,89,0.00,,,0.00,0,Wunderground v.1.15,2013-11-11 05:55:00,
2013-11-10 22:10:00,54.2,51.0,30.15,WSW,257,4.0,4.0,89,0.00,,,0.00,0,Wunderground v.1.15,2013-11-11 06:10:00,
2013-11-10 22:20:00,54.1,50.9,30.15,WSW,254,3.0,3.0,89,0.00,,,0.00,0,Wunderground v.1.15,2013-11-11 06:20:00,
2013-11-10 22:25:00,54.1,50.9,30.15,WSW,255,3.0,3.0,89,0.00,,,0.00,0,Wunderground v.1.15,2013-11-11 06:25:00,
2013-11-10 22:35:00,54.0,50.8,30.15,WSW,255,1.0,1.0,89,0.00,,,0.00,0,Wunderground v.1.15,2013-11-11 06:35:00,
2013-11-10 22:40:00,53.9,50.7,30.14,WSW,254,0.0,0.0,89,0.00,,,0.00,0,Wunderground v.1.15,2013-11-11 06:40:00,
2013-11-10 22:50:00,53.9,50.7,30.14,WSW,254,0.0,0.0,89,0.00,,,0.00,0,Wunderground v.1.15,2013-11-11 06:50:00,
2013-11-10 23:00:00,53.6,50.1,30.14,WSW,253,0.0,0.0,88,0.00,,,0.00,0,Wunderground v.1.15,2013-11-11 07:00:00,
2013-11-10 23:05:00,53.4,49.9,30.15,WSW,253,0.0,0.0,88,0.00,,,0.00,0,Wunderground v.1.15,2013-11-11 07:05:00,
2013-11-10 23:10:00,53.2,49.7,30.14,WSW,254,0.0,0.0,88,0.00,,,0.00,0,Wunderground v.1.15,2013-11-11 07:10:00,
2013-11-10 23:15:00,53.0,49.5,30.14,WSW,253,0.0,0.0,88,0.00,,,0.00,0,Wunderground v.1.15,2013-11-11 07:15:00,
2013-11-10 23:25:00,52.7,49.5,30.15,WSW,253,0.0,0.0,89,0.00,,,0.00,0,Wunderground v.1.15,2013-11-11 07:25:00,
2013-11-10 23:35:00,52.3,49.2,30.15,WSW,254,0.0,0.0,89,0.00,,,0.00,0,Wunderground v.1.15,2013-11-11 07:35:00,
2013-11-10 23:45:00,52.1,49.0,30.15,WSW,253,0.0,0.0,89,0.00,,,0.00,0,Wunderground v.1.15,2013-11-11 07:45:00,
2013-11-10 23:55:00,51.9,48.8,30.15,WSW,255,0.0,0.0,89,0.00,,,0.00,0,Wunderground v.1.15,2013-11-11 07:55:00,